Location: Middlebury
(44.0153°N, 73.1678°W)
Time: 07:31:07
(UTC-04:00)

ISS - Visible Passes

Search period start: 18 August 2022 00:00
Search period end: 28 August 2022 00:00
Orbit: 412 x 420 km, 51.6° (Epoch: 18 August)

Date Brightness Start Highest point End Pass type
(mag) Time Alt. Az. Time Alt. Az. Time Alt. Az.
23 Aug -1.4 04:54:36 10° S 04:56:55 18° SE 04:59:15 10° E visible
24 Aug -1.0 04:07:53 10° SE 04:08:30 10° SE 04:09:07 10° ESE visible
25 Aug -3.0 04:54:03 19° SSW 04:56:06 44° SE 04:59:18 10° ENE visible
26 Aug -2.2 04:07:27 26° SE 04:07:32 26° SE 04:10:24 10° ENE visible
27 Aug -0.8 03:20:48 12° E 03:20:48 12° E 03:21:11 10° E visible
27 Aug -3.7 04:53:41 26° WSW 04:55:23 74° NNW 04:58:45 10° NE visible
